SCP
-0 -0 -0 -0 -0 -0 -0 -0 -0 -0 0 0 -0 -0 -0 -0 -0 -0 0 0 0 0 0 0 0 0 0 0 0 0 0 0 0 0 0 0 0 0 -0 0 0 0 0 0 0 0 0 0 0 0 0 0 0 0
-0 -0 -0 -0 -0 -0 -0 -0 -0 -0 -0 -0 -0 -0 0 -0 -0 0 -0 0 0 0 0 0 0 0 0 0 0 0 0 0 0 0 0 0 0 -0 -0 0 0 0 0 0 0 0 0 0 0 0 0 0 0 0
-0 -0 -0 -0 -0 -0 -0 -0 -0 -0 -0 0 -0 0 -0 -0 -0 0 0 0 0 0 0 0 0 0 -0 0 0 0 0 0 0 0 0 0 0 0 -0 -0 0 0 0 0 0 0 0 0 0 0 0 0 0 0
-0 -0 -0 -0 -0 -0 -0 -0 -0 -0 -0 -0 -0 -0 -0 0 0 0 0 0 0 0 0 0 0 0 0 0 -0 0 0 0 0 0 0 0 0 0 0 0 0 0 0 0 0 0 0 0 0 0 0 0 0 0
-0 0 -0 -0 -0 -0 -0 -0 -0 -0 0 0 0 0 0 -0 -0 0 0 0 0 0 0 0 0 -0 -0 0 0 -0 0 0 0 0 0 0 0 0 0 -0 -0 0 0 0 0 0 0 0 0 0 0 0 0 0
-0 -0 -0 -0 -0 -0 -0 -0 0 0 -0 0 0 0 0 -0 -0 0 -0 0 0 0 0 0 0 0 0 -0 0 0 0 0 0 0 0 0 0 0 0 -0 0 0 0 0 0 0 0 0 0 0 0 0 0 0
0 -0 -0 -0 -0 -0 -0 -0 -0 -0 0 0 0 0 0 0 0 0 -0 0 -0 0 -0 0 0 0 0 0 0 0 0 0 0 0 0 0 -0 0 0 0 0 0 0 0 0 0 0 0 0 0 0 0 0 0
0 0 0 -0 -0 -0 -0 -0 -0 -0 -0 0 0 -0 -0 0 0 0 0 0 0 0 0 -0 -0 -0 0 0 0 0 0 0 0 0 0 0 0 0 0 0 0 0 0 0 0 0 0 0 0 0 0 0 0 0
0 0 0 0 0 -0 -0 -0 -0 -0 -0 -0 -0 0 -0 -0 0 0 -0 0 0 0 0 0 0 0 0 0 0 0 0 0 0 0 0 0 0 0 0 0 0 0 0 0 0 0 0 0 0 0 0 0 0 0
0 0 0 0 0 0 -0 -0 -0 -0 -0 0 -0 -0 -0 -0 -0 -0 0 0 0 0 0 0 0 0 0 0 0 0 0 0 0 0 0 0 0 0 0 0 0 0 0 0 0 0 0 0 0 0 0 0 0 0
0 0 0 0 -0 -0 -0 0 0 -0 -0 -0 -0 0 0 0 0 0 0 0 0 0 0 0 0 0 0 0 0 0 0 0 0 0 0 0 0 0 0 0 0 0 0 0 0 0 0 0 0 0 0 0 0 0
-0 -0 -0 -0 -0 -0 -0 -0 -0 0 0 0 0 0 -0 0 0 0 0 0 0 0 0 0 0 0 0 0 0 0 0 0 0 0 0 0 0 0 0 0 0 0 0 0 0 0 0 0 0 0 0 0 0 0
-0 -0 -0 0 -0 -0 -0 0 -0 0 0 0 0 0 0 0 0 0 0 0 0 0 0 0 0 0 0 0 0 0 0 0 0 0 0 0 0 0 0 0 0 0 0 0 0 0 0 0 0 0 0 0 0 0
-0 -0 0 0 -0 -0 -0 -0 0 0 0 0 0 0 0 0 0 0 0 0 0 0 0 0 0 0 0 0 0 0 0 0 0 0 0 0 0 0 -0 -0 0 -0 0 0 0 0 0 0 0 0 0 0 0 0
-0 -0 0 0 -0 -0 0 0 0 0 0 0 0 0 0 0 0 0 0 0 0 0 0 0 0 0 0 0 0 0 0 0 -0 0 -0 0 0 0 -0 -0 -0 -0 0 0 0 0 0 0 0 0 0 0 0 0
0 0 0 -0 -0 -0 0 0 0 0 0 0 0 0 0 0 0 0 0 0 0 0 0 0 0 0 0 0 0 0 0 0 0 0 0 0 0 0 -0 0 0 0 0 0 0 0 0 0 0 0 0 0 0 0
0 0 0 0 0 0 0 0 0 0 0 0 0 0 0 0 0 0 0 0 0 0 0 0 0 0 0 0 0 0 0 0 0 0 0 0 0 0 0 0 0 0 0 0 0 0 0 0 0 0 0 0 0 0
0 0 0 0 0 0 0 0 0 0 0 0 0 0 0 0 0 0 0 0 0 0 0 0 0 0 0 0 0 0 0 0 0 0 0 0 0 0 0 0 0 0 0 0 0 0 0 0 0 0 0 0 0 0
0 0 0 0 0 0 0 0 0 0 0 0 0 0 0 0 0 0 0 0 0 0 0 0 0 0 0 0 0 0 0 0 0 0 0 0 0 0 0 0 0 0 0 0 0 0 0 0 0 0 0 0 0 0
0 0 0 0 0 0 0 0 0 0 0 0 0 0 0 0 0 0 0 0 0 0 0 0 0 0 0 0 0 0 0 0 0 0 0 0 0 0 0 0 0 0 0 0 0 0 0 0 0 0 0 0 0 0
0 0 0 0 0 0 0 0 0 0 0 0 0 0 0 0 0 0 0 0 0 0 0 0 0 0 0 0 0 0 0 0 0 0 0 0 0 0 0 0 0 0 0 0 0 0 0 0 0 0 0 0 0 0
0 0 0 0 0 0 0 0 0 0 0 0 0 0 0 0 0 0 0 0 0 0 0 0 0 0 0 0 0 0 0 0 0 0 0 0 0 0 0 0 0 0 0 0 0 0 0 0 0 0 0 0 0 0
0 0 0 0 0 0 0 0 0 0 0 0 0 0 0 0 0 0 0 0 0 0 0 0 0 0 0 0 0 0 0 0 0 0 0 0 0 0 0 0 0 0 0 0 0 0 0 0 0 0 0 0 0 0
0 0 0 0 0 0 0 0 0 0 0 0 0 0 0 0 0 0 0 0 0 0 0 0 0 0 0 0 0 0 0 0 0 0 0 0 0 0 0 0 0 0 0 0 0 0 0 0 0 0 0 0 0 0
0 0 0 0 0 0 0 0 0 0 0 0 0 0 0 0 0 0 0 0 0 0 0 0 0 0 0 0 0 0 0 0 0 0 0 0 0 0 0 0 0 0 0 0 0 0 0 0 0 0 0 0 0 0
0 0 0 0 0 0 0 0 0 0 0 0 0 0 0 0 0 0 0 0 0 0 0 0 0 0 0 0 0 0 0 0 0 0 0 0 0 0 0 0 0 0 0 0 0 0 0 0 0 0 0 0 0 0
0 0 0 0 0 0 0 0 0 0 0 0 0 0 0 0 0 0 0 0 0 0 0 0 0 0 0 0 0 0 0 0 0 0 0 0 0 0 0 0 0 0 0 0 0 0 0 0 0 0 0 0 0 0
0 0 0 0 0 0 0 0 0 0 0 0 0 0 0 0 0 0 0 0 0 0 0 0 0 0 0 0 0 0 0 0 0 0 0 0 0 0 0 0 0 0 0 0 0 0 0 0 0 0 0 0 0 0
0 0 0 0 0 0 0 0 0 0 0 0 0 0 0 0 0 0 0 0 0 0 0 0 0 0 0 0 0 0 0 0 0 0 0 0 0 0 0 0 0 0 0 0 0 0 0 0 0 0 0 0 0 0
0 0 0 0 0 0 0 0 0 0 0 0 0 0 0 0 0 0 0 0 0 0 0 0 0 0 0 0 0 0 0 0 0 0 0 0 0 0 0 0 0 0 0 0 0 0 0 0 0 0 0 0 0 0
0 0 0 0 0 0 0 0 0 0 0 0 0 0 0 0 0 0 0 0 0 0 0 0 0 0 0 0 0 0 0 0 0 0 0 0 0 0 -0 0 0 0 0 0 0 0 0 0 0 0 0 0 0 0
0 0 0 0 0 0 0 0 0 0 0 0 0 0 0 0 0 0 0 0 0 0 0 0 0 0 0 0 0 0 0 0 0 0 0 0 0 0 0 0 0 0 0 0 0 0 0 0 0 0 0 0 0 0
0 0 0 0 0 0 0 0 0 0 0 0 0 0 0 0 0 0 0 0 0 0 0 0 0 0 0 0 0 0 0 0 0 0 0 0 -0 0 0 0 0 0 0 0 0 0 0 0 0 0 0 0 0 0
Wind_Speed_500mb
60 57 59 57 56 50 42 32 22 16 13 8 7 9 13 26 33 33 43 50 49 21 31 41 59 26 30 48 12 16 15 11 8 18 13 8 9 14 10 4 9 23 17 22 25 15 31 20 11 35 13 9 26 37
57 51 42 37 45 45 43 39 28 21 10 13 17 18 22 15 4 14 36 45 59 49 19 36 65 71 52 47 51 33 19 18 25 6 4 4 5 2 5 24 7 14 19 18 19 17 3 36 5 23 22 18 28 45
51 44 41 37 29 21 17 14 13 11 8 5 8 15 14 13 15 22 23 44 41 13 14 17 27 46 66 85 78 33 36 30 38 20 11 5 8 7 9 11 0 9 5 7 7 10 8 28 26 27 24 22 33 43
44 44 41 30 23 25 23 13 6 14 13 14 13 14 14 15 22 18 22 41 23 9 5 5 16 21 21 48 76 87 41 38 33 23 6 5 6 8 4 6 6 5 2 10 10 3 6 29 47 35 33 33 41 48
42 39 39 37 35 22 18 18 22 14 9 9 7 16 16 15 19 14 18 9 4 12 4 4 1 18 13 29 50 69 69 40 36 6 4 7 7 8 2 1 8 15 15 15 21 14 3 4 59 49 42 47 52 56
44 43 39 35 34 33 18 16 23 18 8 9 14 15 19 21 21 19 10 15 24 8 5 1 3 25 16 24 37 45 59 39 30 17 7 8 10 6 7 8 0 7 9 12 5 14 8 8 45 50 53 57 56 53
46 45 42 39 33 29 26 17 14 10 17 9 12 16 12 19 24 12 6 20 17 10 5 2 3 13 19 14 8 13 25 11 12 10 4 10 6 8 4 7 3 5 9 15 18 23 20 32 23 50 54 58 55 48
42 44 46 44 37 30 24 22 19 15 16 15 15 11 5 2 9 13 13 21 3 4 2 5 4 5 28 15 7 12 6 6 10 6 6 2 11 4 6 5 5 8 13 16 17 6 4 28 33 52 52 53 49 45
45 43 46 49 45 34 27 23 24 15 13 11 16 24 17 7 7 8 16 6 17 4 10 8 3 4 23 17 11 4 5 5 5 4 3 4 3 7 2 4 11 19 11 11 11 9 19 34 47 52 52 50 46 44
49 47 45 49 50 42 31 23 22 19 11 13 12 6 8 8 22 18 4 3 3 13 12 5 3 6 18 15 9 5 9 3 4 4 14 2 2 4 6 11 16 19 14 20 20 15 26 35 46 50 48 44 40 39
45 47 48 48 52 47 35 27 20 21 13 8 5 6 11 16 8 4 5 13 15 8 14 6 6 0 15 4 4 11 2 3 4 4 4 4 4 4 8 5 12 24 16 21 7 7 19 21 42 47 45 39 35 33
45 42 44 44 50 51 41 29 22 17 14 15 15 15 9 6 2 11 2 7 9 3 3 3 2 5 5 7 2 10 4 6 2 10 5 4 5 8 9 13 17 21 17 19 9 4 15 19 28 31 33 36 33 33
46 44 41 36 44 47 45 32 25 18 19 14 6 5 9 12 11 8 5 7 2 5 3 4 1 4 4 5 6 6 9 4 4 7 5 7 10 17 10 17 18 20 18 16 11 6 14 18 26 27 29 32 32 34
43 44 41 33 40 41 45 36 24 19 8 5 4 8 6 9 4 8 7 7 3 2 1 1 0 4 5 7 1 9 4 4 7 7 5 6 10 11 14 20 22 20 18 15 13 12 15 21 25 29 31 31 31 31
42 42 37 30 43 40 40 37 24 15 5 4 1 6 6 1 3 7 8 6 10 8 3 1 5 1 5 8 5 4 10 5 8 8 6 8 8 3 9 17 23 24 22 19 16 16 19 20 23 27 30 32 33 33
53 39 25 47 43 42 40 37 22 7 5 2 5 9 6 4 4 9 17 12 16 11 7 5 4 8 6 5 6 8 9 10 8 7 15 11 2 3 4 12 16 19 17 17 17 19 22 23 24 27 31 32 31 30
54 29 50 44 41 42 40 26 8 8 6 7 1 10 8 3 8 12 18 20 24 14 3 6 6 12 2 6 5 8 10 8 14 22 20 10 6 7 7 10 19 21 19 19 21 22 24 29 31 33 35 32 30 29
47 53 55 44 38 37 25 7 8 6 3 6 7 11 11 6 14 18 16 30 17 12 15 9 16 6 10 10 8 8 29 13 21 22 16 13 10 11 13 14 17 21 20 20 20 24 29 32 33 31 29 29 32 34
48 52 54 40 29 20 7 5 6 4 4 4 7 17 11 8 13 20 23 34 14 10 11 10 5 7 8 11 13 11 22 30 27 25 21 18 17 16 18 19 21 25 27 27 28 29 28 29 27 28 31 39 39 34
44 44 39 39 26 10 8 5 6 3 4 10 10 16 8 6 19 21 27 28 21 10 3 7 11 12 16 15 14 20 19 24 26 24 24 22 21 19 18 18 17 19 26 30 32 34 36 38 39 40 43 42 40 38
44 45 48 39 14 15 10 6 3 1 7 5 11 11 4 14 10 17 19 24 13 12 7 33 40 28 25 21 17 19 24 26 28 25 18 17 18 19 20 21 22 26 29 31 36 37 40 40 32 36 40 40 35 32
43 42 45 20 12 9 6 4 2 6 4 8 12 9 6 5 8 11 18 18 17 28 32 32 38 36 43 41 35 28 26 29 32 32 28 26 25 25 26 26 30 31 32 32 33 34 34 31 31 36 40 38 38 39
39 31 14 12 11 8 3 7 4 3 1 4 6 2 3 4 6 12 9 18 24 38 47 55 54 45 37 35 34 36 37 36 37 36 33 31 32 33 33 32 31 32 34 33 30 32 32 30 35 39 41 43 44 44
28 10 9 8 12 6 8 5 3 6 4 3 3 4 2 5 9 3 7 13 26 30 31 32 36 35 35 36 36 30 25 26 28 29 31 34 36 35 33 34 36 36 34 32 33 37 38 40 41 45 47 48 48 46
7 11 9 8 6 6 5 4 5 4 5 6 5 4 3 7 2 6 7 8 16 20 20 23 23 17 23 17 15 16 23 29 29 29 27 32 32 34 36 37 38 39 40 42 42 40 40 42 45 49 51 53 52 47
9 13 14 11 5 9 9 9 10 12 6 7 6 6 6 3 2 12 7 7 7 8 2 9 12 10 4 6 13 15 17 19 22 24 21 23 24 28 31 34 36 37 37 40 42 43 42 42 43 44 45 46 45 45
10 11 15 13 9 9 5 3 5 4 9 12 8 8 6 6 11 8 8 8 6 5 9 11 11 8 9 10 13 16 17 16 16 21 28 32 34 36 38 38 37 36 37 36 38 37 37 38 40 40 38 37 36 36
25 18 10 17 12 9 6 5 9 12 8 14 18 11 12 14 8 4 7 7 11 11 9 5 6 10 13 15 15 14 19 30 32 24 21 25 30 31 32 33 35 38 37 35 33 35 35 33 31 31 32 31 29 29
10 14 20 7 6 8 13 13 8 10 15 25 9 8 8 12 10 7 12 12 13 15 13 12 13 14 16 19 23 28 16 13 19 24 27 30 30 29 31 29 29 28 26 32 32 29 28 27 27 25 24 25 25 28
12 25 8 9 10 12 12 16 8 9 14 17 10 11 15 27 34 31 29 28 25 27 30 27 24 24 25 19 8 6 7 13 17 20 23 23 23 22 20 19 20 20 20 19 24 26 24 22 19 16 16 18 20 21
17 22 6 8 6 6 9 12 15 15 13 14 25 27 28 26 44 49 45 44 44 44 40 32 27 15 12 9 4 2 7 10 13 14 16 17 17 14 7 8 12 11 8 9 12 16 15 13 12 13 14 15 16 19
14 17 6 8 5 5 7 6 5 5 6 6 6 9 8 9 12 10 14 14 16 17 15 19 23 18 13 8 4 6 8 10 12 14 16 16 15 11 11 12 12 10 7 4 3 6 7 8 9 12 15 17 20 21
7 7 6 3 3 4 7 5 0 4 5 5 5 5 7 8 12 9 10 11 11 23 26 23 21 18 13 10 7 7 9 11 12 12 14 14 13 10 10 9 10 12 10 6 2 6 9 12 14 17 19 20 21 21
Wind_Direction_500mb
48 54 60 63 64 71 82 89 101 125 148 153 167 205 233 236 239 246 244 237 238 247 245 224 217 195 186 200 180 195 177 222 176 221 208 172 207 214 222 210 199 192 198 207 214 208 250 138 119 179 194 139 180 176
41 46 55 64 73 79 81 81 89 85 89 171 211 192 53 54 140 251 264 266 270 241 265 239 227 220 217 207 204 188 202 166 189 184 196 120 202 158 149 244 158 227 197 202 198 219 68 179 187 196 175 184 184 181
34 39 43 47 55 68 81 89 86 77 55 102 185 277 260 294 260 247 272 273 268 231 253 237 242 240 238 234 223 208 220 222 195 197 163 157 231 148 165 232 193 245 185 174 102 213 220 213 204 200 199 200 189 189
23 26 33 30 28 36 42 34 285 240 233 247 260 280 288 293 269 265 260 267 235 254 249 282 228 218 223 220 218 215 226 202 198 182 122 149 182 225 209 143 159 165 208 169 272 234 313 248 216 208 197 185 176 176
13 16 17 19 24 14 358 345 351 336 288 265 276 274 274 276 279 269 230 268 318 220 247 197 58 33 228 190 190 201 209 203 173 151 134 200 169 148 192 140 240 185 173 203 233 173 117 210 205 198 189 179 178 174
13 8 7 8 10 19 14 351 348 347 310 329 321 292 271 269 285 290 277 255 338 224 238 196 70 26 91 161 190 195 203 199 192 156 169 174 183 196 172 212 131 208 210 233 306 173 186 181 184 188 184 180 178 178
10 10 6 360 358 1 8 358 347 17 96 73 25 18 344 258 261 254 283 312 298 183 214 50 13 6 30 59 83 114 155 156 195 145 130 150 167 172 73 223 127 190 206 164 149 141 113 164 176 181 182 176 176 173
11 8 7 4 357 350 349 349 342 267 281 302 311 304 279 134 154 219 300 344 294 213 158 91 291 36 15 10 25 27 93 113 50 87 75 141 146 137 233 55 103 193 191 174 181 229 227 189 176 176 180 175 172 172
9 9 8 6 3 355 345 342 344 328 279 288 304 296 285 257 240 253 300 292 35 170 108 66 84 278 356 15 354 19 51 75 21 64 61 311 160 195 52 311 211 206 180 229 195 162 161 181 178 176 178 175 179 177
359 1 3 7 5 1 353 343 342 342 322 311 291 247 257 265 308 298 251 163 98 39 59 96 320 324 346 352 10 13 34 40 45 8 313 11 4 310 280 277 231 205 213 183 153 157 178 183 183 181 183 184 186 184
354 354 353 358 4 4 358 350 342 345 338 327 267 247 290 300 292 309 47 43 350 36 21 37 38 13 10 19 289 30 201 357 85 315 359 347 311 287 307 256 191 201 204 187 212 252 216 214 191 186 185 186 186 184
344 348 350 348 355 360 358 353 346 341 337 326 314 296 297 342 77 75 340 334 43 212 332 133 311 321 331 333 54 2 91 20 199 340 70 316 250 306 257 213 194 190 194 201 217 260 191 188 192 192 189 187 185 182
337 339 343 343 347 350 355 351 351 339 326 305 298 289 12 352 31 95 290 304 343 209 307 6 7 322 296 357 66 57 65 196 313 38 217 241 296 320 248 204 191 194 201 203 224 222 197 192 188 190 192 188 187 183
332 332 334 331 339 343 348 347 340 341 323 294 360 313 102 319 247 178 183 187 141 177 168 112 15 65 360 45 350 70 248 59 44 37 243 246 275 313 176 177 185 188 193 202 206 199 195 191 190 187 185 189 187 184
336 327 326 321 334 336 339 338 331 329 284 264 104 243 215 209 180 169 158 149 162 156 170 127 69 309 348 70 36 95 25 341 198 226 226 236 333 344 174 181 187 194 199 208 214 208 200 198 195 193 190 187 186 190
343 334 321 324 327 327 331 331 320 298 241 222 126 96 137 64 289 212 195 171 158 143 115 73 111 48 348 121 51 210 112 223 240 215 195 190 158 32 213 211 206 207 215 216 213 211 209 206 203 199 197 198 201 203
332 329 327 322 324 323 323 320 279 234 209 167 173 170 170 199 177 162 167 170 165 155 146 108 62 216 75 31 296 198 205 219 208 180 180 203 267 293 292 247 230 230 231 232 226 217 210 208 208 207 207 207 210 212
325 336 335 331 326 328 316 260 249 238 162 166 159 177 182 175 154 156 163 163 159 176 154 187 135 129 187 182 256 235 228 209 178 185 211 228 247 276 291 289 262 249 244 242 235 229 226 224 224 221 215 215 219 223
323 332 335 333 334 331 280 281 266 223 174 168 169 167 172 163 182 176 171 171 166 160 157 140 111 203 224 214 215 216 201 196 199 212 222 229 244 258 267 268 261 249 247 245 242 242 241 239 237 226 221 224 229 233
313 325 327 327 324 299 263 261 272 262 152 167 167 167 160 158 159 172 170 173 167 180 173 216 220 216 208 220 222 213 210 205 208 211 222 227 236 247 259 262 260 246 244 243 240 233 228 226 222 220 222 227 234 239
303 316 320 325 302 231 265 255 254 97 146 162 154 155 126 150 154 172 181 184 208 225 241 233 236 235 234 236 229 220 215 215 221 227 235 228 234 242 251 255 250 246 245 245 245 243 240 241 237 234 234 240 249 253
289 306 311 300 239 242 258 226 125 137 141 138 159 185 165 174 184 185 177 192 232 237 230 246 254 250 248 249 245 242 235 230 229 234 241 250 253 255 255 257 254 255 254 254 251 251 251 249 243 240 241 246 250 251
278 297 281 234 229 231 243 191 171 162 167 202 164 238 225 177 175 170 246 231 250 248 246 248 251 249 249 249 246 241 240 242 244 244 248 254 259 260 258 256 259 260 260 259 258 256 253 246 242 242 246 247 251 255
270 256 245 236 217 206 165 156 148 123 124 183 191 270 251 178 158 166 252 251 246 252 248 253 250 247 244 241 242 240 239 244 242 240 245 253 260 263 265 260 257 258 260 261 254 252 251 248 247 248 251 254 257 260
227 231 214 252 202 121 168 160 160 172 235 181 174 236 197 162 211 236 239 263 262 281 271 241 231 235 231 235 237 238 240 240 246 256 251 255 263 265 262 260 259 260 257 257 257 259 259 258 256 256 256 257 259 262
219 208 187 204 184 171 182 168 201 200 166 176 208 142 158 174 257 245 230 252 299 293 285 190 192 192 206 266 248 246 249 254 259 268 276 279 280 278 277 272 268 266 266 265 264 262 261 260 260 259 259 258 258 259
229 243 206 194 173 160 121 117 145 151 181 192 168 163 171 229 243 250 253 267 251 183 141 140 149 172 230 258 262 255 251 258 271 280 285 286 284 279 276 275 274 273 268 264 260 259 260 259 257 257 260 259 257 259
219 182 187 173 182 200 147 161 190 211 198 160 133 187 197 204 239 233 229 208 200 191 189 203 242 246 247 254 255 259 278 293 294 291 294 294 290 286 281 278 275 271 267 265 259 255 256 254 252 250 251 254 253 252
201 178 157 142 159 198 219 206 222 209 173 171 176 214 238 232 242 256 286 276 252 242 228 243 254 259 263 268 278 289 285 292 302 306 307 303 299 287 282 280 278 278 274 260 256 254 251 248 245 245 243 244 241 242
191 173 150 168 183 214 212 207 220 216 208 214 242 274 271 269 281 284 281 277 271 264 267 264 268 278 280 278 253 265 311 318 318 316 314 311 309 304 295 291 294 296 273 275 256 251 249 242 242 249 250 250 251 255
155 172 163 198 243 234 229 234 244 250 248 244 242 249 260 282 284 285 274 268 262 258 259 264 268 244 184 173 186 302 354 0 353 354 357 357 354 345 330 342 345 336 304 292 262 251 243 235 236 245 254 256 260 266
167 183 171 199 239 245 236 220 229 239 243 247 252 243 277 270 266 262 264 264 256 244 219 182 162 162 160 155 107 52 36 33 36 33 27 26 29 51 64 46 35 32 26 14 278 242 224 233 251 261 265 270 273 275
141 164 192 255 221 213 204 195 83 320 251 263 258 260 243 255 253 263 270 234 190 164 159 163 162 158 154 136 107 77 54 45 41 36 36 39 45 57 72 71 56 47 47 46 349 290 282 281 280 279 279 278 278 279
Wind_Speed_850mb
60 57 59 57 56 50 42 32 22 16 13 8 7 9 13 26 33 33 43 50 49 21 31 41 59 26 30 48 12 16 15 11 8 18 13 8 9 14 10 4 9 23 17 22 25 15 31 20 11 35 13 9 26 37
57 51 42 37 45 45 43 39 28 21 10 13 17 18 22 15 4 14 36 45 59 49 19 36 65 71 52 47 51 33 19 18 25 6 4 4 5 2 5 24 7 14 19 18 19 17 3 36 5 23 22 18 28 45
51 44 41 37 29 21 17 14 13 11 8 5 8 15 14 13 15 22 23 44 41 13 14 17 27 46 66 85 78 33 36 30 38 20 11 5 8 7 9 11 0 9 5 7 7 10 8 28 26 27 24 22 33 43
44 44 41 30 23 25 23 13 6 14 13 14 13 14 14 15 22 18 22 41 23 9 5 5 16 21 21 48 76 87 41 38 33 23 6 5 6 8 4 6 6 5 2 10 10 3 6 29 47 35 33 33 41 48
42 39 39 37 35 22 18 18 22 14 9 9 7 16 16 15 19 14 18 9 4 12 4 4 1 18 13 29 50 69 69 40 36 6 4 7 7 8 2 1 8 15 15 15 21 14 3 4 59 49 42 47 52 56
44 43 39 35 34 33 18 16 23 18 8 9 14 15 19 21 21 19 10 15 24 8 5 1 3 25 16 24 37 45 59 39 30 17 7 8 10 6 7 8 0 7 9 12 5 14 8 8 45 50 53 57 56 53
46 45 42 39 33 29 26 17 14 10 17 9 12 16 12 19 24 12 6 20 17 10 5 2 3 13 19 14 8 13 25 11 12 10 4 10 6 8 4 7 3 5 9 15 18 23 20 32 23 50 54 58 55 48
42 44 46 44 37 30 24 22 19 15 16 15 15 11 5 2 9 13 13 21 3 4 2 5 4 5 28 15 7 12 6 6 10 6 6 2 11 4 6 5 5 8 13 16 17 6 4 28 33 52 52 53 49 45
45 43 46 49 45 34 27 23 24 15 13 11 16 24 17 7 7 8 16 6 17 4 10 8 3 4 23 17 11 4 5 5 5 4 3 4 3 7 2 4 11 19 11 11 11 9 19 34 47 52 52 50 46 44
49 47 45 49 50 42 31 23 22 19 11 13 12 6 8 8 22 18 4 3 3 13 12 5 3 6 18 15 9 5 9 3 4 4 14 2 2 4 6 11 16 19 14 20 20 15 26 35 46 50 48 44 40 39
45 47 48 48 52 47 35 27 20 21 13 8 5 6 11 16 8 4 5 13 15 8 14 6 6 0 15 4 4 11 2 3 4 4 4 4 4 4 8 5 12 24 16 21 7 7 19 21 42 47 45 39 35 33
45 42 44 44 50 51 41 29 22 17 14 15 15 15 9 6 2 11 2 7 9 3 3 3 2 5 5 7 2 10 4 6 2 10 5 4 5 8 9 13 17 21 17 19 9 4 15 19 28 31 33 36 33 33
46 44 41 36 44 47 45 32 25 18 19 14 6 5 9 12 11 8 5 7 2 5 3 4 1 4 4 5 6 6 9 4 4 7 5 7 10 17 10 17 18 20 18 16 11 6 14 18 26 27 29 32 32 34
43 44 41 33 40 41 45 36 24 19 8 5 4 8 6 9 4 8 7 7 3 2 1 1 0 4 5 7 1 9 4 4 7 7 5 6 10 11 14 20 22 20 18 15 13 12 15 21 25 29 31 31 31 31
42 42 37 30 43 40 40 37 24 15 5 4 1 6 6 1 3 7 8 6 10 8 3 1 5 1 5 8 5 4 10 5 8 8 6 8 8 3 9 17 23 24 22 19 16 16 19 20 23 27 30 32 33 33
53 39 25 47 43 42 40 37 22 7 5 2 5 9 6 4 4 9 17 12 16 11 7 5 4 8 6 5 6 8 9 10 8 7 15 11 2 3 4 12 16 19 17 17 17 19 22 23 24 27 31 32 31 30
54 29 50 44 41 42 40 26 8 8 6 7 1 10 8 3 8 12 18 20 24 14 3 6 6 12 2 6 5 8 10 8 14 22 20 10 6 7 7 10 19 21 19 19 21 22 24 29 31 33 35 32 30 29
47 53 55 44 38 37 25 7 8 6 3 6 7 11 11 6 14 18 16 30 17 12 15 9 16 6 10 10 8 8 29 13 21 22 16 13 10 11 13 14 17 21 20 20 20 24 29 32 33 31 29 29 32 34
48 52 54 40 29 20 7 5 6 4 4 4 7 17 11 8 13 20 23 34 14 10 11 10 5 7 8 11 13 11 22 30 27 25 21 18 17 16 18 19 21 25 27 27 28 29 28 29 27 28 31 39 39 34
44 44 39 39 26 10 8 5 6 3 4 10 10 16 8 6 19 21 27 28 21 10 3 7 11 12 16 15 14 20 19 24 26 24 24 22 21 19 18 18 17 19 26 30 32 34 36 38 39 40 43 42 40 38
44 45 48 39 14 15 10 6 3 1 7 5 11 11 4 14 10 17 19 24 13 12 7 33 40 28 25 21 17 19 24 26 28 25 18 17 18 19 20 21 22 26 29 31 36 37 40 40 32 36 40 40 35 32
43 42 45 20 12 9 6 4 2 6 4 8 12 9 6 5 8 11 18 18 17 28 32 32 38 36 43 41 35 28 26 29 32 32 28 26 25 25 26 26 30 31 32 32 33 34 34 31 31 36 40 38 38 39
39 31 14 12 11 8 3 7 4 3 1 4 6 2 3 4 6 12 9 18 24 38 47 55 54 45 37 35 34 36 37 36 37 36 33 31 32 33 33 32 31 32 34 33 30 32 32 30 35 39 41 43 44 44
28 10 9 8 12 6 8 5 3 6 4 3 3 4 2 5 9 3 7 13 26 30 31 32 36 35 35 36 36 30 25 26 28 29 31 34 36 35 33 34 36 36 34 32 33 37 38 40 41 45 47 48 48 46
7 11 9 8 6 6 5 4 5 4 5 6 5 4 3 7 2 6 7 8 16 20 20 23 23 17 23 17 15 16 23 29 29 29 27 32 32 34 36 37 38 39 40 42 42 40 40 42 45 49 51 53 52 47
9 13 14 11 5 9 9 9 10 12 6 7 6 6 6 3 2 12 7 7 7 8 2 9 12 10 4 6 13 15 17 19 22 24 21 23 24 28 31 34 36 37 37 40 42 43 42 42 43 44 45 46 45 45
10 11 15 13 9 9 5 3 5 4 9 12 8 8 6 6 11 8 8 8 6 5 9 11 11 8 9 10 13 16 17 16 16 21 28 32 34 36 38 38 37 36 37 36 38 37 37 38 40 40 38 37 36 36
25 18 10 17 12 9 6 5 9 12 8 14 18 11 12 14 8 4 7 7 11 11 9 5 6 10 13 15 15 14 19 30 32 24 21 25 30 31 32 33 35 38 37 35 33 35 35 33 31 31 32 31 29 29
10 14 20 7 6 8 13 13 8 10 15 25 9 8 8 12 10 7 12 12 13 15 13 12 13 14 16 19 23 28 16 13 19 24 27 30 30 29 31 29 29 28 26 32 32 29 28 27 27 25 24 25 25 28
12 25 8 9 10 12 12 16 8 9 14 17 10 11 15 27 34 31 29 28 25 27 30 27 24 24 25 19 8 6 7 13 17 20 23 23 23 22 20 19 20 20 20 19 24 26 24 22 19 16 16 18 20 21
17 22 6 8 6 6 9 12 15 15 13 14 25 27 28 26 44 49 45 44 44 44 40 32 27 15 12 9 4 2 7 10 13 14 16 17 17 14 7 8 12 11 8 9 12 16 15 13 12 13 14 15 16 19
14 17 6 8 5 5 7 6 5 5 6 6 6 9 8 9 12 10 14 14 16 17 15 19 23 18 13 8 4 6 8 10 12 14 16 16 15 11 11 12 12 10 7 4 3 6 7 8 9 12 15 17 20 21
7 7 6 3 3 4 7 5 0 4 5 5 5 5 7 8 12 9 10 11 11 23 26 23 21 18 13 10 7 7 9 11 12 12 14 14 13 10 10 9 10 12 10 6 2 6 9 12 14 17 19 20 21 21
Wind_Direction_850mb
48 54 60 63 64 71 82 89 101 125 148 153 167 205 233 236 239 246 244 237 238 247 245 224 217 195 186 200 180 195 177 222 176 221 208 172 207 214 222 210 199 192 198 207 214 208 250 138 119 179 194 139 180 176
41 46 55 64 73 79 81 81 89 85 89 171 211 192 53 54 140 251 264 266 270 241 265 239 227 220 217 207 204 188 202 166 189 184 196 120 202 158 149 244 158 227 197 202 198 219 68 179 187 196 175 184 184 181
34 39 43 47 55 68 81 89 86 77 55 102 185 277 260 294 260 247 272 273 268 231 253 237 242 240 238 234 223 208 220 222 195 197 163 157 231 148 165 232 193 245 185 174 102 213 220 213 204 200 199 200 189 189
23 26 33 30 28 36 42 34 285 240 233 247 260 280 288 293 269 265 260 267 235 254 249 282 228 218 223 220 218 215 226 202 198 182 122 149 182 225 209 143 159 165 208 169 272 234 313 248 216 208 197 185 176 176
13 16 17 19 24 14 358 345 351 336 288 265 276 274 274 276 279 269 230 268 318 220 247 197 58 33 228 190 190 201 209 203 173 151 134 200 169 148 192 140 240 185 173 203 233 173 117 210 205 198 189 179 178 174
13 8 7 8 10 19 14 351 348 347 310 329 321 292 271 269 285 290 277 255 338 224 238 196 70 26 91 161 190 195 203 199 192 156 169 174 183 196 172 212 131 208 210 233 306 173 186 181 184 188 184 180 178 178
10 10 6 360 358 1 8 358 347 17 96 73 25 18 344 258 261 254 283 312 298 183 214 50 13 6 30 59 83 114 155 156 195 145 130 150 167 172 73 223 127 190 206 164 149 141 113 164 176 181 182 176 176 173
11 8 7 4 357 350 349 349 342 267 281 302 311 304 279 134 154 219 300 344 294 213 158 91 291 36 15 10 25 27 93 113 50 87 75 141 146 137 233 55 103 193 191 174 181 229 227 189 176 176 180 175 172 172
9 9 8 6 3 355 345 342 344 328 279 288 304 296 285 257 240 253 300 292 35 170 108 66 84 278 356 15 354 19 51 75 21 64 61 311 160 195 52 311 211 206 180 229 195 162 161 181 178 176 178 175 179 177
359 1 3 7 5 1 353 343 342 342 322 311 291 247 257 265 308 298 251 163 98 39 59 96 320 324 346 352 10 13 34 40 45 8 313 11 4 310 280 277 231 205 213 183 153 157 178 183 183 181 183 184 186 184
354 354 353 358 4 4 358 350 342 345 338 327 267 247 290 300 292 309 47 43 350 36 21 37 38 13 10 19 289 30 201 357 85 315 359 347 311 287 307 256 191 201 204 187 212 252 216 214 191 186 185 186 186 184
344 348 350 348 355 360 358 353 346 341 337 326 314 296 297 342 77 75 340 334 43 212 332 133 311 321 331 333 54 2 91 20 199 340 70 316 250 306 257 213 194 190 194 201 217 260 191 188 192 192 189 187 185 182
337 339 343 343 347 350 355 351 351 339 326 305 298 289 12 352 31 95 290 304 343 209 307 6 7 322 296 357 66 57 65 196 313 38 217 241 296 320 248 204 191 194 201 203 224 222 197 192 188 190 192 188 187 183
332 332 334 331 339 343 348 347 340 341 323 294 360 313 102 319 247 178 183 187 141 177 168 112 15 65 360 45 350 70 248 59 44 37 243 246 275 313 176 177 185 188 193 202 206 199 195 191 190 187 185 189 187 184
336 327 326 321 334 336 339 338 331 329 284 264 104 243 215 209 180 169 158 149 162 156 170 127 69 309 348 70 36 95 25 341 198 226 226 236 333 344 174 181 187 194 199 208 214 208 200 198 195 193 190 187 186 190
343 334 321 324 327 327 331 331 320 298 241 222 126 96 137 64 289 212 195 171 158 143 115 73 111 48 348 121 51 210 112 223 240 215 195 190 158 32 213 211 206 207 215 216 213 211 209 206 203 199 197 198 201 203
332 329 327 322 324 323 323 320 279 234 209 167 173 170 170 199 177 162 167 170 165 155 146 108 62 216 75 31 296 198 205 219 208 180 180 203 267 293 292 247 230 230 231 232 226 217 210 208 208 207 207 207 210 212
325 336 335 331 326 328 316 260 249 238 162 166 159 177 182 175 154 156 163 163 159 176 154 187 135 129 187 182 256 235 228 209 178 185 211 228 247 276 291 289 262 249 244 242 235 229 226 224 224 221 215 215 219 223
323 332 335 333 334 331 280 281 266 223 174 168 169 167 172 163 182 176 171 171 166 160 157 140 111 203 224 214 215 216 201 196 199 212 222 229 244 258 267 268 261 249 247 245 242 242 241 239 237 226 221 224 229 233
313 325 327 327 324 299 263 261 272 262 152 167 167 167 160 158 159 172 170 173 167 180 173 216 220 216 208 220 222 213 210 205 208 211 222 227 236 247 259 262 260 246 244 243 240 233 228 226 222 220 222 227 234 239
303 316 320 325 302 231 265 255 254 97 146 162 154 155 126 150 154 172 181 184 208 225 241 233 236 235 234 236 229 220 215 215 221 227 235 228 234 242 251 255 250 246 245 245 245 243 240 241 237 234 234 240 249 253
289 306 311 300 239 242 258 226 125 137 141 138 159 185 165 174 184 185 177 192 232 237 230 246 254 250 248 249 245 242 235 230 229 234 241 250 253 255 255 257 254 255 254 254 251 251 251 249 243 240 241 246 250 251
278 297 281 234 229 231 243 191 171 162 167 202 164 238 225 177 175 170 246 231 250 248 246 248 251 249 249 249 246 241 240 242 244 244 248 254 259 260 258 256 259 260 260 259 258 256 253 246 242 242 246 247 251 255
270 256 245 236 217 206 165 156 148 123 124 183 191 270 251 178 158 166 252 251 246 252 248 253 250 247 244 241 242 240 239 244 242 240 245 253 260 263 265 260 257 258 260 261 254 252 251 248 247 248 251 254 257 260
227 231 214 252 202 121 168 160 160 172 235 181 174 236 197 162 211 236 239 263 262 281 271 241 231 235 231 235 237 238 240 240 246 256 251 255 263 265 262 260 259 260 257 257 257 259 259 258 256 256 256 257 259 262
219 208 187 204 184 171 182 168 201 200 166 176 208 142 158 174 257 245 230 252 299 293 285 190 192 192 206 266 248 246 249 254 259 268 276 279 280 278 277 272 268 266 266 265 264 262 261 260 260 259 259 258 258 259
229 243 206 194 173 160 121 117 145 151 181 192 168 163 171 229 243 250 253 267 251 183 141 140 149 172 230 258 262 255 251 258 271 280 285 286 284 279 276 275 274 273 268 264 260 259 260 259 257 257 260 259 257 259
219 182 187 173 182 200 147 161 190 211 198 160 133 187 197 204 239 233 229 208 200 191 189 203 242 246 247 254 255 259 278 293 294 291 294 294 290 286 281 278 275 271 267 265 259 255 256 254 252 250 251 254 253 252
201 178 157 142 159 198 219 206 222 209 173 171 176 214 238 232 242 256 286 276 252 242 228 243 254 259 263 268 278 289 285 292 302 306 307 303 299 287 282 280 278 278 274 260 256 254 251 248 245 245 243 244 241 242
191 173 150 168 183 214 212 207 220 216 208 214 242 274 271 269 281 284 281 277 271 264 267 264 268 278 280 278 253 265 311 318 318 316 314 311 309 304 295 291 294 296 273 275 256 251 249 242 242 249 250 250 251 255
155 172 163 198 243 234 229 234 244 250 248 244 242 249 260 282 284 285 274 268 262 258 259 264 268 244 184 173 186 302 354 0 353 354 357 357 354 345 330 342 345 336 304 292 262 251 243 235 236 245 254 256 260 266
167 183 171 199 239 245 236 220 229 239 243 247 252 243 277 270 266 262 264 264 256 244 219 182 162 162 160 155 107 52 36 33 36 33 27 26 29 51 64 46 35 32 26 14 278 242 224 233 251 261 265 270 273 275
141 164 192 255 221 213 204 195 83 320 251 263 258 260 243 255 253 263 270 234 190 164 159 163 162 158 154 136 107 77 54 45 41 36 36 39 45 57 72 71 56 47 47 46 349 290 282 281 280 279 279 278 278 279